METEOR 2-11 DEB

Satellite information

Favourite Embed

Satellite Type and Status

DEBRISIN ORBIT

Key statistics

Satellite METEOR 2-11 DEB at a glance.

Uptime

14918

Days in orbit

Revolutions

≈ 13.9

Per day

Orbit

LEO

Low Earth Orbit

Inclination

82.5

Latest

Satellite identification and parameters

Extended collection of information and parameters for METEOR 2-11 DEB.

Object identification

Identified? True

Debris? True

Object name: METEOR 2-11 DEB

International designator: 1984-072V

Object number (NORAD): 43310

Object ID (CCSDS): 43310

Country: COMMONWEALTH OF INDEPENDENT STATES (CIS)

Current information (Y/N): Y

RCS size: SMALL

Orbital parameters

Period: 103.298 minutes

Inclination: 82.5449 deg

SMA: 7292.683 km

Apoapsis: 927.442 km

Periapsis: 901.654 km

RAAN: 355.042 deg

Eccentricy: 0.0017681

Argument of periapsis: 143.7535 deg

Mean anomaly: 216.4832 deg

Mean motion: 13.94028837 rev/day

Mean motion (dot): 0.00001985 rev/day2

B* drag term: 0.0014882 1/REarth

Two-line elements (TLE)

Creation date: May 9, 2025, 2:46 a.m.

Reference frame: TEME

Reference center: EARTH

Epoch: May 8, 2025, 10:59 p.m. UTC

TLE line 0: 0 METEOR 2-11 DEB

TLE line 1: 1 43310U 84072V 25128.95773005 .00001985 00000-0 14882-2 0 9994

TLE line 2: 2 43310 82.5449 355.0420 0017681 143.7535 216.4832 13.94028837527482

Live tracking on map

Real-time ground track for satellite METEOR 2-11 DEB.

In-orbit conjunctions

A list of the most updated potential collisions computed for object METEOR 2-11 DEB.

Target Orbit TCA Probability of collision Miss distance Type
COSMOS 724 LEO 2025-03-04 02:53:10 0.001501883 92.0 (m) PAYLOAD
CZ-6A DEB LEO 2025-01-09 18:02:50 0.0001040484 531.0 (m) DEBRIS
FENGYUN 1C DEB SSO 2024-11-15 08:56:22 0.0001089937 241.0 (m) DEBRIS

Associated space launch

Second generation soviet meteorological satellite

METEOR 2-11 DEB was lifted into orbit during the mission ‘Tsiklon-3 | Meteor-2 11’, on board a Tsiklon-3 space rocket.

The launch took place on July 5, 1984, 3:35 a.m. from 32/2.

For more information about the launch, click the button.

Launch to space Tsiklon-3 | Meteor-2 11
Tsiklon-3 | Meteor-2 11

Agency: N/A

Status: Launch Successful

Launch date: July 5, 1984, 3:35 a.m. UTC

Rocket: Tsiklon-3

Launch pad: 32/2

Location: Plesetsk Cosmodrome, Russian Federation

...

Latest news about this satellite

There are no fresh news available about this satellite. Check back as we update our databases every day.


Newsletter sign-up

Weekly statistics, charts and insights to help you stay on top of the space industry.